Weather History for Chadron, NE

Change the Weather History Date:

Monday, May 12, 2014

  Actual Average Record
Temperature  
Mean Temperature 44 °F 55 °F  
Max Temperature 51 °F 70 °F 88 °F (1915)
Min Temperature 37 °F 40 °F 21 °F (1953)
Degree Days  
Heating Degree Days 21 11  
Month to date heating degree days 184 154  
Since 1 July heating degree days 7102 6917  
Cooling Degree Days 0 0  
Month to date cooling degree days 0 0  
Year to date cooling degree days 1 2  
Moisture  
Dew Point 31 °F    
Average Humidity 68    
Maximum Humidity 93    
Minimum Humidity 38    
Precipitation  
Precipitation T in 0.08 in 2.15 in (1942)
Month to date precipitation 2.61 1.00  
Year to date precipitation 6.91 5.18  
Sea Level Pressure  
Sea Level Pressure 30.27 in    
Wind  
Wind Speed 13 mph (North)    
Max Wind Speed 28 mph    
Max Gust Speed 33 mph    
Visibility 10 miles    
Events Rain    
T = Trace of Precipitation, MM = Missing Value Source: NWS Daily Summary

Daily Weather History Graph

Daily Weather History Graph

Search for Another Location

Airport:

Trip Planner

Search our weather history database for the weather conditions in past years. The results will help you decide how hot, cold, wet, or windy it might be!

Date:

Astronomy

May. 12, 2014 Rise Set
Actual Time 5:32 AM MDT 8:05 PM MDT
Civil Twilight 5:00 AM MDT 8:37 PM MDT
Nautical Twilight 4:20 AM MDT 9:17 PM MDT
Astronomical Twilight 3:35 AM MDT 10:03 PM MDT
Moon 6:02 PM MDT (5/12) 4:16 AM MDT (5/12)
Length of Visible Light 15h 37m
Length of Day
14h 32m
Waxing Gibbous, 95% of the Moon is Illuminated
May 12
Waxing Gibbous
May 14
Full
May 21
Last Quarter
May 28
New
Jun 5
First Quarter

Hourly Weather History & Observations

Time (MDT) Temp. Windchill Dew Point Humidity Pressure Visibility Wind Dir Wind Speed Gust Speed Precip Events Conditions
12:53 AM 39.0 °F 32.3 °F 36.0 °F 89% 30.21 in 10.0 mi North 10.4 mph - 0.00 in Rain Light Rain
1:53 AM 39.0 °F 31.0 °F 35.1 °F 86% 30.18 in 10.0 mi North 13.8 mph - 0.00 in   Overcast
2:19 AM 39.2 °F 32.0 °F 35.6 °F 87% 30.11 in 10.0 mi North 11.5 mph - N/A   Overcast
2:53 AM 37.9 °F 31.5 °F 35.1 °F 89% 30.19 in 10.0 mi NNW 9.2 mph - N/A   Overcast
3:53 AM 37.9 °F 29.2 °F 35.1 °F 89% 30.19 in 10.0 mi North 15.0 mph - N/A   Overcast
4:34 AM 37.4 °F 29.8 °F 35.6 °F 93% 30.13 in 10.0 mi North 11.5 mph 19.6 mph N/A   Overcast
4:53 AM 37.0 °F 29.3 °F 35.1 °F 93% 30.22 in 10.0 mi North 11.5 mph - N/A   Overcast
5:42 AM 37.4 °F 29.8 °F 33.8 °F 87% 30.16 in 10.0 mi North 11.5 mph - N/A   Overcast
5:53 AM 37.0 °F 29.3 °F 34.0 °F 89% 30.24 in 10.0 mi North 11.5 mph - N/A   Overcast
6:53 AM 37.0 °F 30.4 °F 34.0 °F 89% 30.27 in 10.0 mi North 9.2 mph - N/A   Overcast
8:53 AM 39.9 °F 34.5 °F 32.0 °F 73% 30.29 in 10.0 mi NNW 8.1 mph - N/A   Overcast
9:53 AM 42.1 °F 33.3 °F 30.0 °F 62% 30.31 in 10.0 mi North 19.6 mph 25.3 mph N/A   Overcast
10:53 AM 42.1 °F 33.1 °F 28.0 °F 58% 30.32 in 10.0 mi North 20.7 mph 31.1 mph N/A   Partly Cloudy
11:53 AM 44.1 °F 35.9 °F 28.9 °F 55% 30.32 in 10.0 mi North 19.6 mph 25.3 mph N/A   Overcast
12:53 PM 46.0 °F 38.3 °F 28.9 °F 51% 30.30 in 10.0 mi North 20.7 mph 29.9 mph N/A   Scattered Clouds
1:53 PM 48.0 °F - 27.0 °F 44% 30.30 in 10.0 mi North 18.4 mph 29.9 mph N/A   Partly Cloudy
2:53 PM 48.9 °F - 27.0 °F 43% 30.30 in 10.0 mi North 16.1 mph 25.3 mph N/A   Scattered Clouds
3:53 PM 50.0 °F - 28.0 °F 43% 30.30 in 10.0 mi North 17.3 mph 23.0 mph N/A   Clear
4:53 PM 51.1 °F - 26.1 °F 38% 30.30 in 10.0 mi North 18.4 mph - N/A   Partly Cloudy
5:53 PM 51.1 °F - 27.0 °F 39% 30.30 in 10.0 mi North 16.1 mph 23.0 mph N/A   Mostly Cloudy
6:53 PM 48.9 °F - 26.1 °F 41% 30.30 in 10.0 mi North 11.5 mph - N/A   Overcast
7:53 PM 46.0 °F 41.4 °F 30.9 °F 56% 30.33 in 10.0 mi North 9.2 mph - N/A   Overcast
9:53 PM 42.1 °F 37.7 °F 30.9 °F 65% 30.37 in 10.0 mi NNW 6.9 mph - N/A   Overcast
10:53 PM 39.9 °F 34.5 °F 30.9 °F 70% 30.40 in 10.0 mi NW 8.1 mph - N/A   Overcast
11:53 PM 39.0 °F 32.8 °F 28.9 °F 67% 30.40 in 10.0 mi WNW 9.2 mph - N/A   Mostly Cloudy